TimeCST,TemperatureF,Dew PointF,Humidity,Sea Level PressureIn,VisibilityMPH,Wind Direction,Wind SpeedMPH,Gust SpeedMPH,PrecipitationIn,Events,Conditions,WindDirDegrees,DateUTC
12:54 AM,26.1,12.9,58,30.27,10.0,NNW,8.1,-,N/A,,Clear,330,2013-02-16 06:54:00
1:54 AM,25.0,12.9,60,30.27,10.0,NW,8.1,-,N/A,,Clear,310,2013-02-16 07:54:00
2:54 AM,23.0,12.9,65,30.27,10.0,West,4.6,-,N/A,,Clear,280,2013-02-16 08:54:00
3:54 AM,23.0,12.0,63,30.27,10.0,West,4.6,-,N/A,,Clear,280,2013-02-16 09:54:00
4:54 AM,21.0,12.0,68,30.28,10.0,West,5.8,-,N/A,,Clear,280,2013-02-16 10:54:00
5:54 AM,21.0,12.0,68,30.28,10.0,West,4.6,-,N/A,,Clear,280,2013-02-16 11:54:00
6:54 AM,19.9,12.0,71,30.30,10.0,West,4.6,-,N/A,,Clear,270,2013-02-16 12:54:00
7:54 AM,21.9,14.0,72,30.31,10.0,WNW,5.8,-,N/A,,Clear,300,2013-02-16 13:54:00
8:54 AM,24.1,12.0,60,30.32,10.0,NNW,10.4,-,N/A,,Partly Cloudy,330,2013-02-16 14:54:00
9:54 AM,26.1,10.9,53,30.31,10.0,NNW,9.2,-,N/A,,Clear,340,2013-02-16 15:54:00
10:54 AM,28.9,12.0,49,30.31,10.0,NNW,5.8,-,N/A,,Clear,330,2013-02-16 16:54:00
11:54 AM,32.0,9.0,38,30.28,10.0,WNW,12.7,-,N/A,,Clear,300,2013-02-16 17:54:00
12:54 PM,35.1,9.0,34,30.25,10.0,WNW,8.1,-,N/A,,Clear,300,2013-02-16 18:54:00
1:54 PM,36.0,8.1,31,30.22,10.0,NNW,10.4,19.6,N/A,,Clear,330,2013-02-16 19:54:00
2:54 PM,37.0,6.1,28,30.20,10.0,NW,10.4,17.3,N/A,,Clear,310,2013-02-16 20:54:00
3:54 PM,37.9,7.0,28,30.20,10.0,NNW,9.2,-,N/A,,Clear,330,2013-02-16 21:54:00
4:54 PM,36.0,6.1,29,30.20,10.0,West,6.9,-,N/A,,Clear,270,2013-02-16 22:54:00
5:54 PM,30.9,9.0,40,30.21,10.0,Calm,Calm,-,N/A,,Clear,0,2013-02-16 23:54:00
6:54 PM,26.1,12.9,58,30.22,10.0,Calm,Calm,-,N/A,,Clear,0,2013-02-17 00:54:00
7:54 PM,25.0,12.9,60,30.22,10.0,Calm,Calm,-,N/A,,Clear,0,2013-02-17 01:54:00
8:54 PM,23.0,12.0,63,30.23,10.0,Calm,Calm,-,N/A,,Clear,0,2013-02-17 02:54:00
9:54 PM,21.9,12.9,68,30.23,10.0,Calm,Calm,-,N/A,,Clear,0,2013-02-17 03:54:00
10:54 PM,21.0,12.9,71,30.22,10.0,Calm,Calm,-,N/A,,Clear,0,2013-02-17 04:54:00
11:54 PM,19.9,12.9,74,30.21,10.0,Calm,Calm,-,N/A,,Clear,0,2013-02-17 05:54:00